Satellite-Ground Cal/Val Region Overpasses Predictions

Prediction of Satellite NPP Overpassing Cal/Val Region: PacNW

Region Location: (Latitude: 10.00, Longitude: 139.50) to (Latitude: 22.70, Longitude: 165.60).

Table of predicted overpasses for the next 14.0 days since TLE Epoch: 5/22/2014
Interval Starting Time Starting Location Ending Time Ending Location
1 05/22/2014 15:04:37 ( 22.69, 160.17) 05/22/2014 15:08:13 ( 10.01, 157.14)
2 05/23/2014 02:16:13 ( 18.80, 165.59) 05/23/2014 02:17:19 ( 22.67, 164.63)
3 05/23/2014 03:55:14 ( 10.06, 142.28) 05/23/2014 03:58:32 ( 21.68, 139.51)
4 05/23/2014 14:45:37 ( 22.69, 164.93) 05/23/2014 14:49:13 ( 10.01, 161.90)
5 05/23/2014 16:27:07 ( 22.69, 139.56) 05/23/2014 16:27:10 ( 22.51, 139.51)
6 05/24/2014 03:36:14 ( 10.06, 147.03) 05/24/2014 03:39:49 ( 22.68, 144.02)
7 05/24/2014 16:08:06 ( 22.68, 144.32) 05/24/2014 16:11:42 ( 10.01, 141.28)
8 05/25/2014 03:17:12 ( 10.00, 151.80) 05/25/2014 03:20:48 ( 22.68, 148.77)
9 05/25/2014 15:49:06 ( 22.68, 149.07) 05/25/2014 15:52:42 ( 10.00, 146.04)
10 05/26/2014 02:58:12 ( 10.01, 156.56) 05/26/2014 03:01:48 ( 22.69, 153.53)
11 05/26/2014 15:30:05 ( 22.68, 153.83) 05/26/2014 15:33:40 ( 10.06, 150.81)
12 05/27/2014 02:39:11 ( 10.01, 161.32) 05/27/2014 02:42:47 ( 22.69, 158.29)
13 05/27/2014 15:11:05 ( 22.67, 158.59) 05/27/2014 15:14:40 ( 10.05, 155.57)
14 05/28/2014 02:20:47 ( 12.13, 165.59) 05/28/2014 02:23:47 ( 22.70, 163.05)
15 05/28/2014 04:01:41 ( 10.02, 140.70) 05/28/2014 04:03:09 ( 15.19, 139.50)
16 05/28/2014 14:52:05 ( 22.66, 163.34) 05/28/2014 14:55:40 ( 10.04, 160.33)
17 05/29/2014 03:42:40 ( 10.02, 145.46) 05/29/2014 03:46:15 ( 22.64, 142.44)
18 05/29/2014 14:36:02 ( 12.21, 165.59) 05/29/2014 14:36:39 ( 10.04, 165.09)
19 05/29/2014 16:14:34 ( 22.66, 142.73) 05/29/2014 16:18:09 ( 10.04, 139.71)
20 05/30/2014 03:23:40 ( 10.03, 150.22) 05/30/2014 03:27:15 ( 22.65, 147.20)
21 05/30/2014 15:55:34 ( 22.65, 147.48) 05/30/2014 15:59:09 ( 10.03, 144.47)
22 05/31/2014 03:04:39 ( 10.04, 154.97) 05/31/2014 03:08:14 ( 22.66, 151.96)
23
